Lionhead Wind

Lionhead weather stationLocated on Lionhead Ridge near West Yellowstone. Use the nearest SNOTEL station for snow depth data: Madison Plateau. The data on this page is also available to view at dataGarrison.com.

Elevation
9420ft
Jump to table bottom
Date Time Temperature
deg F
RH, % Wind Speed Wind Gust Wind Direction Pressure Light
01/31/23 18:00 -9.3 89 25 34 SW - 216 713.360 0
01/31/23 17:00 -10.0 89 28 37 SW - 223 713.100 0
01/31/23 16:00 -9.8 89 32 38 SW - 222 712.700 0
01/31/23 15:00 -557.8 0 29 38 SW - 219 246.220 0
01/31/23 14:00 -9.9 89 24 30 SW - 223 712.260 0
01/31/23 13:00 -8.7 89 20 24 SW - 227 713.200 0
01/31/23 12:00 -8.3 90 21 31 SW - 230 713.360 0
01/31/23 11:00 -9.9 89 21 29 SW - 230 713.420 0
01/31/23 10:00 -11.3 88 19 25 SW - 234 713.600 0
01/31/23 09:00 -13.3 88 20 30 SW - 233 713.260 0
01/31/23 08:00 -14.9 88 21 27 SW - 220 713.000 0
01/31/23 07:00 -16.1 88 17 24 SW - 233 712.420 0
01/31/23 06:00 -16.7 88 21 30 SW - 227 712.500 0
01/31/23 05:00 -17.3 87 20 26 SW - 236 712.040 0
01/31/23 04:00 -16.5 87 20 26 SW - 229 712.300 0
01/31/23 03:00 -16.2 88 25 32 SW - 218 711.860 0
01/31/23 02:00 -16.3 88 23 31 SW - 223 711.580 0
01/31/23 01:00 -15.6 88 21 27 SW - 222 711.500 0
01/31/23 00:00 -17.7 83 20 29 SW - 237 711.720 0
01/30/23 23:00 -18.2 82 17 27 SW - 243 711.680 0
01/30/23 22:00 -16.0 86 15 24 SW - 234 711.680 0
01/30/23 21:00 -14.0 83 18 26 SW - 244 711.500 0
01/30/23 20:00 -15.8 86 16 24 SW - 237 711.380 0
01/30/23 19:00 -9.5 88 11 21 W - 254 711.660 0
01/30/23 18:00 -9.3 90 9 19 W - 270 711.640 0
01/30/23 17:00 -6.9 86 9 23 W - 268 711.400 0
01/30/23 16:00 -4.6 85 8 22 W - 271 711.220 0
01/30/23 15:00 -1.5 81 10 21 W - 263 711.020 0
01/30/23 14:00 0.0 77 4 12 W - 256 710.600 0
01/30/23 13:00 9.6 83 1 5 NW - 337 710.580 0
01/30/23 12:00 9.5 85 4 15 NW - 330 710.780 0
01/30/23 11:00 4.9 65 3 9 W - 251 710.960 0
01/30/23 10:00 -2.6 68 5 14 NW - 330 710.660 0
01/30/23 09:00 -3.3 68 7 15 NW - 320 710.140 0
01/30/23 08:00 -8.5 67 3 12 NW - 331 709.680 0
01/30/23 07:00 -11.7 83 5 10 NW - 331 709.200 0
01/30/23 06:00 -12.4 82 5 13 NW - 299 708.860 0
01/30/23 05:00 -11.5 86 4 11 NW - 323 708.680 0
01/30/23 04:00 -10.8 88 3 8 NW - 303 708.580 0
01/30/23 03:00 -11.6 79 7 14 NW - 337 708.620 0
01/30/23 02:00 -10.3 83 6 13 NW - 336 708.300 0
01/30/23 01:00 -13.1 86 2 7 N - 352 708.100 0
01/30/23 00:00 -12.9 87 7 17 NW - 319 708.180 0
01/29/23 23:00 -15.2 84 12 17 NW - 326 708.500 0
01/29/23 22:00 -14.6 85 12 20 N - 338 708.520 0
01/29/23 21:00 -15.5 85 16 24 NW - 333 708.340 0
01/29/23 20:00 -16.2 87 14 24 NW - 334 708.200 0
01/29/23 19:00 -17.0 88 18 27 NW - 327 708.140 0
01/29/23 18:00 -17.5 88 18 28 N - 338 707.700 0
01/29/23 17:00 -17.0 87 14 22 NW - 333 707.680 0